Theta_e
363 364 364 355 330 325 319 321 328 325 327 332 334 331 330 332 329 324 350 354 354 350 355 357 364 362 363 365 365 364 364 363 364 363 364 363 363 362 363 362 362 362 362 363 363 362 362 363 363
365 360 360 345 323 316 319 326 325 330 331 336 335 332 331 329 339 341 346 352 354 355 358 358 363 364 363 364 365 365 363 363 364 363 364 364 363 363 362 362 362 362 362 361 361 361 362 362 360
363 362 345 333 322 317 320 328 329 331 334 334 332 336 333 332 341 344 352 353 353 354 360 361 363 366 363 363 363 363 363 363 363 363 362 363 363 362 362 363 362 362 362 362 362 362 362 361 360
362 357 341 323 320 326 328 331 333 333 335 336 335 330 338 345 343 349 354 355 354 357 358 360 364 364 364 363 363 363 363 363 363 364 362 362 363 363 363 363 362 362 361 361 360 361 361 360 359
360 341 324 322 323 329 333 335 335 332 333 332 333 330 334 343 349 352 351 353 353 353 357 357 366 364 365 365 363 362 362 362 362 362 363 362 362 362 362 362 361 361 361 362 361 361 360 359 359
340 334 319 317 323 330 334 337 336 334 334 334 333 333 337 347 349 351 353 351 354 353 355 356 362 363 363 363 363 363 362 362 362 362 362 362 362 361 359 359 360 361 361 360 361 360 359 358 357
334 325 320 321 323 326 332 338 334 333 332 333 338 332 338 344 350 352 353 355 355 356 356 356 354 360 360 362 361 361 361 362 361 361 360 360 359 359 358 357 360 360 360 359 359 358 358 357 355
339 329 318 321 320 326 335 335 338 335 333 341 339 330 333 344 349 351 354 354 353 353 354 356 355 353 356 360 361 361 360 359 358 360 360 360 358 357 357 355 357 357 360 359 356 355 356 356 356
337 322 317 319 320 329 336 333 341 340 336 337 340 338 342 346 348 348 349 350 352 352 350 350 351 352 353 356 364 362 360 358 360 360 361 359 357 353 350 354 356 356 356 357 356 358 357 356 356
329 321 321 328 329 330 334 335 336 336 336 336 338 340 345 345 345 343 344 344 343 345 346 345 347 352 358 356 360 362 359 356 363 361 361 359 357 354 351 352 352 353 356 356 358 357 357 356 349
328 322 326 332 334 336 334 334 336 332 329 338 336 337 341 343 344 343 343 342 340 341 344 346 356 358 356 356 359 357 354 355 361 362 360 357 356 354 349 351 351 355 353 352 356 355 352 350 351
324 330 331 336 337 335 331 334 331 333 333 340 343 341 343 343 343 342 339 339 340 339 344 350 356 359 359 359 356 359 354 359 362 357 360 357 350 350 350 347 344 352 352 352 351 349 350 352 351
326 329 335 338 337 335 334 331 330 333 339 344 343 343 343 344 346 348 347 349 348 343 343 348 355 359 361 359 356 355 354 353 355 354 356 355 350 350 349 349 345 344 348 350 349 349 348 348 344
331 332 334 336 336 334 330 331 330 334 341 341 341 342 344 344 345 347 348 348 350 350 348 349 354 358 357 356 356 356 356 355 355 355 362 360 353 351 350 350 350 347 347 343 348 348 348 347 347
331 327 332 334 335 332 335 328 327 336 339 339 340 342 342 344 346 346 348 348 350 351 351 350 352 355 359 358 356 357 360 358 365 365 357 357 359 356 357 351 352 348 350 345 350 350 348 346 345
324 325 319 331 334 334 331 323 332 337 336 336 338 339 341 343 344 348 349 349 350 352 352 355 354 354 357 359 359 359 364 365 367 359 354 356 359 359 356 354 355 356 351 345 345 345 346 345 344
321 316 317 320 332 331 330 324 333 337 335 334 335 337 339 341 344 347 348 349 349 351 353 354 357 356 358 362 362 365 363 357 345 346 347 350 355 357 357 355 354 359 359 361 356 354 349 345 349
314 314 316 316 321 328 327 327 332 336 335 334 335 336 338 339 342 347 348 349 350 351 353 355 355 358 361 360 362 364 360 355 351 351 353 352 350 352 352 352 355 357 354 354 356 355 357 354 352
318 316 314 318 320 322 324 326 330 335 335 335 334 334 336 339 343 346 349 351 351 353 353 354 354 357 359 357 356 356 365 357 358 354 357 356 353 354 351 349 349 355 353 355 357 356 354 354 357
317 315 316 318 320 322 321 323 329 334 335 336 336 336 335 338 342 347 350 351 351 353 356 357 358 360 360 358 359 358 358 361 360 358 360 362 362 360 354 355 355 357 352 348 350 356 355 352 353
318 315 314 314 318 323 322 321 326 332 336 337 338 339 338 339 338 344 348 349 351 353 356 357 360 361 361 360 359 359 359 359 357 358 357 359 362 362 360 362 360 357 353 348 350 346 349 347 354
314 319 315 315 315 311 320 309 322 329 331 335 336 337 337 340 343 345 346 344 346 348 354 358 360 360 360 362 359 358 357 355 355 355 359 361 362 361 360 359 359 358 356 349 353 351 354 351 346
316 317 315 315 315 316 316 312 318 325 325 331 336 337 338 342 344 343 344 344 348 350 353 353 358 359 360 360 361 355 353 355 358 358 360 363 363 363 362 365 364 359 356 354 354 352 352 350 350
319 315 316 317 316 309 314 312 313 318 327 329 334 337 339 341 345 347 346 347 348 353 353 356 352 352 358 357 351 346 353 355 355 357 356 357 358 357 360 361 362 363 359 358 356 355 354 354 354
315 313 307 307 307 306 314 312 314 323 326 328 330 337 340 343 345 346 344 345 348 348 352 352 353 349 349 349 350 347 348 349 353 349 349 351 350 351 352 354 355 357 358 360 361 358 356 355 353
312 313 308 302 304 307 315 308 316 328 332 334 335 334 340 343 345 344 344 345 345 347 347 347 350 351 350 347 349 347 345 344 347 344 344 343 343 345 346 347 348 350 352 353 357 357 358 358 354
312 310 316 311 312 308 311 315 320 328 330 333 334 336 339 342 343 342 343 344 346 348 350 350 351 350 350 351 351 349 349 343 342 345 345 342 341 339 340 340 341 342 343 347 349 353 349 350 355
314 317 309 311 304 303 308 310 312 324 328 332 334 336 339 342 342 343 344 345 347 349 351 350 349 347 345 347 345 343 342 341 340 339 337 337 336 336 336 335 335 336 338 340 341 341 344 344 346
310 310 313 314 312 306 304 309 321 324 329 331 335 337 339 340 341 343 345 346 346 346 347 345 345 344 342 341 340 339 337 337 336 334 333 333 334 335 334 334 334 335 335 336 336 336 336 336 337
314 312 314 308 309 311 310 310 326 328 331 334 337 339 341 341 341 342 342 342 343 345 343 343 342 340 339 338 337 335 335 334 332 332 331 332 332 334 333 333 333 333 334 334 332 332 333 333 333
Wind_Speed
13 11 4 6 4 9 15 11 12 13 9 7 7 6 13 12 9 11 13 17 20 15 11 9 11 11 12 13 13 13 14 13 12 13 12 11 10 10 10 10 10 11 11 12 12 13 13 13 13
8 5 5 5 5 11 12 10 9 8 10 11 8 4 7 9 10 14 13 16 22 16 11 10 11 12 12 12 12 12 13 14 13 12 10 11 10 11 10 9 11 10 12 11 13 13 13 13 14
3 4 5 1 11 12 12 11 13 13 11 5 5 8 5 7 14 9 16 16 19 15 12 13 12 12 13 12 13 12 12 12 11 10 9 9 10 10 11 10 11 10 11 11 12 12 14 14 13
4 6 5 10 15 13 14 12 10 9 6 3 7 10 10 12 8 11 16 16 15 14 14 14 14 14 13 12 12 11 11 10 9 9 8 8 10 10 10 10 10 10 10 10 11 12 13 13 11
5 5 8 11 14 13 11 9 4 6 6 7 2 11 14 8 11 18 14 13 15 12 14 15 11 12 11 12 11 11 9 8 7 6 7 7 8 9 9 10 9 10 9 10 11 11 11 10 9
5 5 9 12 12 8 9 6 9 9 8 9 16 18 10 12 17 15 15 12 12 12 13 15 12 10 10 10 9 9 8 7 7 6 5 6 7 8 8 8 8 9 9 9 10 9 9 8 6
6 6 8 11 7 8 5 3 9 10 8 10 14 12 10 15 15 14 13 12 12 13 11 12 13 10 9 8 8 7 7 6 5 5 4 4 4 5 7 8 8 8 8 7 8 7 7 7 4
6 3 13 11 9 9 4 6 6 7 11 12 8 8 14 18 16 13 12 12 8 7 10 9 9 10 9 12 8 6 5 5 4 4 4 4 5 9 8 3 6 7 9 7 7 7 6 5 4
5 5 11 14 13 8 7 5 7 6 12 6 3 12 21 20 16 15 12 11 10 9 10 11 11 9 7 6 9 7 6 3 4 6 5 5 4 7 8 10 6 6 7 8 7 7 7 4 5
5 7 12 9 8 9 6 4 8 7 10 8 10 16 21 20 16 15 14 13 13 11 10 9 10 9 9 5 6 4 4 6 5 2 4 1 4 1 4 3 2 4 6 7 7 7 5 8 7
4 8 5 8 11 8 7 7 5 4 6 11 15 21 21 20 16 14 13 13 13 13 10 11 7 7 5 5 4 5 4 4 4 4 4 5 1 1 4 2 4 4 7 7 11 11 9 11 4
3 6 7 6 8 5 8 5 9 8 5 7 16 21 19 18 15 14 13 13 11 12 11 10 10 6 6 3 5 1 3 2 1 5 6 2 4 4 3 2 5 4 5 6 5 5 6 3 5
4 6 10 9 8 9 5 7 9 11 10 13 19 19 17 15 14 12 12 11 11 11 11 10 8 7 2 3 1 5 4 5 3 5 5 5 5 4 4 2 4 4 7 5 6 6 4 6 6
7 8 11 8 7 8 8 8 1 9 12 14 16 16 15 14 14 13 11 11 11 10 11 11 10 9 6 8 3 4 5 5 7 5 2 5 7 4 6 5 4 5 1 7 7 6 7 7 8
7 8 8 6 6 4 4 7 9 13 13 15 13 12 13 13 13 13 12 12 12 11 11 10 10 11 11 11 8 5 2 4 3 4 1 1 4 5 6 6 7 3 2 5 7 6 5 4 11
5 5 4 9 7 5 7 8 13 16 14 14 13 11 12 13 13 12 12 11 11 10 11 11 10 11 11 8 7 6 3 1 5 3 4 5 7 7 8 7 6 6 5 5 5 7 5 5 5
6 1 2 3 10 4 10 4 14 16 14 14 13 14 12 12 12 13 12 11 10 11 9 10 11 10 9 9 7 6 4 6 6 4 4 6 7 6 6 7 7 7 6 6 7 7 8 8 10
1 2 2 5 4 10 10 10 15 16 15 14 14 14 13 13 14 13 12 11 12 10 11 10 8 9 7 5 4 4 2 6 5 6 5 6 4 6 6 8 7 7 7 7 8 10 8 8 7
1 3 4 4 4 6 9 11 12 17 16 16 15 15 15 14 13 12 11 10 9 9 10 11 9 7 7 6 5 4 5 6 7 7 9 10 7 8 7 5 6 6 6 8 8 9 10 8 8
3 4 2 4 3 6 4 7 10 19 19 18 17 15 14 14 13 11 9 9 11 10 9 8 7 7 7 6 4 2 2 3 4 5 7 10 10 10 9 9 8 6 4 7 10 10 8 6 5
9 8 4 8 8 6 7 10 10 13 16 17 16 16 15 13 11 8 8 8 8 8 9 9 9 9 6 5 5 4 3 4 3 2 4 6 7 9 11 11 9 8 6 7 9 6 10 8 6
15 7 4 8 11 7 4 5 9 11 16 17 17 16 16 15 11 10 9 7 2 3 6 8 11 11 11 11 7 4 2 2 1 4 4 3 4 3 5 7 8 7 6 9 9 9 9 8 9
14 5 6 7 12 12 10 8 9 8 10 13 17 18 17 15 12 13 9 8 6 6 9 9 11 10 10 9 8 7 5 5 2 3 4 1 1 1 5 5 4 5 5 8 8 8 9 7 9
10 8 9 8 7 13 4 4 5 4 7 6 9 18 17 16 13 9 12 8 9 10 11 11 12 12 8 9 9 7 5 8 6 7 6 3 4 4 7 7 6 3 5 6 7 8 10 9 10
15 15 13 13 10 10 5 5 5 8 5 3 5 13 16 15 14 13 13 11 10 11 11 10 9 8 7 10 4 5 3 9 10 8 6 6 6 7 8 9 8 7 6 7 4 6 7 8 8
19 20 15 14 10 9 4 7 5 8 7 4 5 8 13 15 13 13 11 11 9 10 12 11 9 10 7 8 9 7 3 4 8 9 4 3 4 5 8 8 8 9 10 9 9 7 6 6 7
11 14 20 20 6 9 8 5 9 10 6 6 7 9 12 12 12 12 11 9 8 10 10 8 7 8 9 8 8 9 8 9 8 10 3 3 4 5 6 8 8 9 9 9 9 5 8 8 7
14 11 13 12 14 13 9 6 8 8 9 9 11 11 11 12 11 11 9 9 8 7 7 9 10 12 11 10 8 8 8 8 8 7 5 5 5 5 6 7 7 8 8 9 10 8 6 9 7
13 13 11 11 14 14 13 11 7 5 9 13 13 12 12 12 12 12 10 9 9 9 11 13 12 13 11 10 9 8 8 8 7 6 5 5 6 6 7 8 8 8 8 9 8 9 7 10 9
11 20 20 12 14 12 14 7 4 7 10 13 14 14 13 12 11 11 12 12 11 11 11 12 11 10 10 9 8 8 8 7 7 6 6 7 6 6 7 8 8 8 8 11 11 11 10 10 11
Wind_Direction
160 172 188 216 208 73 58 78 99 109 104 109 60 29 69 33 11 96 131 136 133 149 162 168 150 130 118 110 115 122 127 129 123 122 125 124 124 129 137 124 125 121 114 114 112 113 114 111 111
142 157 224 254 54 69 60 65 66 74 97 109 95 111 49 70 82 114 127 140 137 142 161 170 143 131 124 119 118 121 126 126 125 128 130 127 129 134 129 132 126 125 123 122 120 120 117 111 105
170 273 281 340 49 46 73 74 88 102 132 128 112 55 45 85 120 122 127 140 137 148 149 133 136 129 130 130 129 128 129 129 130 132 135 133 139 140 140 131 124 122 120 119 124 124 119 115 109
223 191 224 55 68 58 76 97 105 110 93 53 102 88 87 99 112 129 139 141 142 150 139 130 143 135 133 134 130 132 126 127 136 139 144 148 144 138 139 136 133 132 128 131 126 126 121 119 118
246 243 84 70 72 69 76 95 64 95 86 114 138 103 108 96 122 129 143 151 142 153 133 145 134 136 136 134 130 127 130 131 135 137 143 152 143 139 138 143 145 142 136 137 134 130 129 127 121
220 270 57 56 70 73 82 73 78 85 105 100 112 119 94 119 139 142 149 149 138 145 158 137 143 140 133 129 123 131 138 146 141 150 163 158 144 150 151 155 152 151 142 139 139 143 138 130 125
328 51 51 63 74 77 71 69 73 87 112 105 131 114 114 146 139 147 147 148 157 149 154 151 157 149 148 143 148 155 149 133 139 154 175 174 156 154 157 161 157 154 150 150 138 147 145 148 155
294 288 69 57 53 76 96 91 105 81 82 123 136 138 153 149 150 141 144 142 160 155 142 153 155 167 176 159 165 159 153 151 177 156 124 133 105 84 7 244 176 176 156 164 153 153 160 162 168
275 58 54 50 44 96 128 108 73 92 130 91 77 139 138 145 152 153 151 158 164 182 162 167 165 166 191 186 139 172 165 168 188 166 156 91 141 134 191 229 212 200 189 175 172 171 178 194 207
295 43 49 26 57 94 123 74 118 136 124 131 113 110 137 152 164 164 168 166 177 174 180 165 171 173 163 188 156 189 176 206 161 352 100 110 113 242 298 94 204 195 194 194 184 193 201 225 232
52 32 59 51 66 95 102 113 126 157 148 156 150 146 156 160 169 172 172 179 179 178 180 169 175 178 201 176 165 212 191 208 138 196 227 193 234 282 272 327 205 216 194 228 188 187 218 209 267
129 50 66 90 92 85 68 108 79 58 63 130 153 154 159 167 169 177 172 177 183 184 188 179 173 181 207 210 207 282 235 126 221 192 223 179 242 271 279 61 326 275 270 208 279 268 291 277 240
69 97 93 111 101 84 97 65 92 89 100 127 142 156 163 170 172 176 179 175 184 187 192 198 181 184 101 225 73 238 219 216 265 234 193 253 272 249 264 155 219 279 279 262 250 248 250 233 263
98 107 118 132 122 117 111 125 215 108 122 128 149 162 169 177 178 174 183 183 183 191 190 194 196 166 161 220 215 229 223 207 231 238 318 244 274 259 268 259 265 254 135 288 275 255 260 247 235
144 121 124 148 161 144 159 143 109 135 141 142 161 174 175 182 181 187 190 189 186 184 176 193 198 194 194 212 221 236 247 241 314 5 23 283 258 273 274 273 269 293 253 244 287 297 305 275 283
202 233 246 147 195 161 233 111 144 151 157 155 167 176 187 188 192 192 189 198 185 206 187 191 192 192 193 211 216 231 235 292 34 342 294 300 290 275 267 241 257 255 206 214 230 233 231 244 245
205 107 34 151 210 167 228 82 155 167 170 165 177 175 186 183 197 191 197 196 202 194 203 207 197 206 194 190 224 232 196 109 192 227 247 272 288 288 277 271 254 252 248 236 249 224 216 222 238
176 167 128 334 96 220 215 251 150 180 184 180 185 181 185 191 188 187 196 196 188 196 199 206 212 206 203 206 198 206 146 165 217 231 244 248 251 269 289 292 293 277 265 264 245 249 244 240 244
284 284 314 18 47 277 237 241 185 185 195 191 194 193 186 194 177 175 185 193 199 198 198 198 203 191 192 187 204 209 201 215 206 221 224 234 232 247 251 248 266 255 264 274 269 255 253 254 249
236 277 286 245 357 257 270 252 202 182 204 198 193 197 196 190 178 175 186 212 199 199 201 192 194 170 188 176 164 220 226 194 238 230 222 219 231 232 250 275 270 273 248 246 263 258 264 257 256
226 268 352 334 311 220 278 225 168 198 201 204 202 198 197 197 177 186 192 204 217 195 187 173 153 145 165 145 160 173 192 212 241 241 238 243 235 229 238 260 269 263 218 243 252 259 266 256 243
255 157 287 302 302 332 318 306 149 174 201 205 204 199 193 192 192 181 172 126 123 148 157 144 146 150 156 167 160 166 155 217 355 311 321 305 203 237 218 248 258 251 229 232 252 262 265 251 252
268 132 266 297 289 307 191 266 116 156 203 202 207 199 198 180 200 191 138 127 123 140 120 134 135 147 156 160 149 153 145 125 72 344 313 147 120 318 354 316 275 263 237 233 250 262 258 245 246
251 207 230 243 286 262 158 282 299 73 84 120 199 203 199 179 193 155 141 126 112 110 135 144 143 149 154 139 139 143 188 99 84 31 342 3 10 345 46 344 330 281 269 262 256 247 247 245 249
220 235 235 225 203 249 110 237 312 92 98 134 157 190 194 180 179 161 145 137 134 129 127 140 144 120 160 154 137 65 51 84 95 80 17 346 5 3 15 346 348 343 339 318 285 252 258 255 251
214 230 238 241 239 274 125 247 106 91 102 123 182 202 178 175 172 168 161 139 139 137 117 125 144 150 132 106 116 138 117 105 100 89 70 37 3 351 349 341 338 340 336 332 324 293 284 272 270
210 239 245 261 168 266 267 164 236 172 141 134 126 154 159 173 170 172 154 143 139 133 124 107 130 115 109 107 114 114 95 84 95 74 54 42 4 347 355 336 335 337 333 329 325 327 357 337 317
266 261 206 230 249 226 222 229 272 165 167 150 149 153 159 153 162 164 154 133 136 132 126 120 107 112 114 105 95 82 89 81 77 80 67 44 13 4 349 347 347 346 342 350 336 338 343 329 325
199 226 237 262 223 248 239 215 138 144 181 168 153 151 153 158 157 147 139 126 132 126 132 125 126 121 116 108 103 99 94 92 88 83 70 45 34 7 6 2 357 356 0 357 349 339 337 331 326
233 214 221 225 206 249 286 290 98 141 166 157 154 151 150 149 149 138 131 132 129 131 120 129 124 117 104 102 101 95 90 83 78 65 60 42 28 12 11 3 8 4 7 4 2 352 349 341 344